Weather History for Campo, CA

Change the Weather History Date:

Saturday, January 5, 2013

  Actual Average Record
Temperature  
Mean Temperature 43 °F 48 °F  
Max Temperature 61 °F 63 °F 81 °F (2003)
Min Temperature 24 °F 34 °F 14 °F (1970)
Degree Days  
Heating Degree Days 22 17  
Month to date heating degree days 109 85  
Since 1 July heating degree days 1107 1191  
Cooling Degree Days 0 0  
Month to date cooling degree days 0 0  
Year to date cooling degree days 0 0  
Moisture  
Dew Point 6 °F    
Average Humidity 27    
Maximum Humidity 46    
Minimum Humidity 8    
Precipitation  
Precipitation 0.00 in 0.09 in 3.56 in (1995)
Month to date precipitation 0.00 0.47  
Year to date precipitation 0.00 0.47  
Since 1 July precipitation 4.47 6.05  
Snow  
Snow 0.00 in - - ()
Month to date snowfall 0.0  
Year to date snowfall 0.0  
Since 1 July snowfall 0.0  
Snow Depth 0.00 in    
Sea Level Pressure  
Sea Level Pressure 30.18 in    
Wind  
Wind Speed 8 mph (NE)    
Max Wind Speed 22 mph    
Max Gust Speed 25 mph    
T = Trace of Precipitation, MM = Missing Value Source: NWS Daily Summary

Daily Weather History Graph

Daily Weather History Graph

Search for Another Location

Airport:

Trip Planner

Search our weather history database for the weather conditions in past years. The results will help you decide how hot, cold, wet, or windy it might be!

Date:

Astronomy

Jan. 05, 2013 Rise Set
Actual Time 6:48 AM PST 4:54 PM PST
Civil Twilight 6:21 AM PST 5:21 PM PST
Nautical Twilight 5:51 AM PST 5:52 PM PST
Astronomical Twilight 5:21 AM PST 6:22 PM PST
Moon 12:11 AM PST (1/5) 11:37 AM PST (1/5)
Length of Visible Light 10h 59m
Length of Day
10h 05m
Last Quarter, 43% of the Moon is Illuminated
Jan 5
Last Quarter
Jan 11
New
Jan 18
First Quarter
Jan 26
Full
Feb 3
Last Quarter

Hourly Weather History & Observations

Time (PST) Temp. Windchill Dew Point Humidity Pressure Visibility Wind Dir Wind Speed Gust Speed Precip Events Conditions
12:52 AM 28.9 °F 25.2 °F 8.1 °F 41% 30.19 in - North 3.5 mph - N/A   Unknown
1:52 AM 26.1 °F - 9.0 °F 49% 30.20 in - Calm Calm - N/A   Unknown
2:52 AM 26.1 °F - 8.1 °F 47% 30.19 in - Calm Calm - N/A   Unknown
3:52 AM 33.1 °F 28.7 °F 5.0 °F 31% 30.18 in - North 4.6 mph - N/A   Unknown
4:52 AM 32.0 °F 28.7 °F 6.1 °F 34% 30.20 in - NNW 3.5 mph - N/A   Unknown
5:52 AM 28.9 °F 22.8 °F 7.0 °F 40% 30.22 in - North 5.8 mph - N/A   Unknown
6:52 AM 30.9 °F 24.3 °F 5.0 °F 33% 30.23 in - North 6.9 mph - N/A   Unknown
7:52 AM 41.0 °F 36.4 °F 7.0 °F 25% 30.23 in - North 6.9 mph - N/A   Unknown
8:52 AM 51.1 °F - 7.0 °F 17% 30.22 in - ENE 12.7 mph 16.1 mph N/A   Unknown
9:52 AM 55.0 °F - 3.0 °F 12% 30.22 in - East 18.4 mph - N/A   Unknown
10:52 AM 57.0 °F - 1.9 °F 11% 30.19 in - East 18.4 mph - N/A   Unknown
11:52 AM 59.0 °F - -0.0 °F 9% 30.17 in - East 16.1 mph - N/A   Unknown
12:52 PM 60.1 °F - -2.0 °F 8% 30.14 in - ENE 15.0 mph - N/A   Unknown
1:52 PM 61.0 °F - -2.9 °F 8% 30.12 in - ENE 9.2 mph - N/A   Unknown
2:52 PM 60.1 °F - -2.0 °F 8% 30.13 in - ENE 11.5 mph - N/A   Unknown
3:52 PM 57.0 °F - -0.0 °F 10% 30.13 in - ENE 12.7 mph - N/A   Unknown
4:52 PM 50.0 °F - 1.0 °F 13% 30.14 in - East 9.2 mph - N/A   Unknown
5:52 PM 44.1 °F 40.8 °F 6.1 °F 21% 30.17 in - NNE 5.8 mph - N/A   Unknown
6:52 PM 37.0 °F 33.3 °F 10.9 °F 34% 30.17 in - NNE 4.6 mph - N/A   Unknown
7:52 PM 35.1 °F 32.2 °F 10.9 °F 37% 30.17 in - NNE 3.5 mph - N/A   Unknown
8:52 PM 33.1 °F 30.0 °F 12.0 °F 42% 30.16 in - NNE 3.5 mph - N/A   Unknown
9:52 PM 34.0 °F - 12.0 °F 40% 30.16 in - Calm Calm - N/A   Unknown
10:52 PM 32.0 °F 26.4 °F 10.9 °F 42% 30.15 in - NE 5.8 mph - N/A   Unknown
11:52 PM 30.0 °F 25.2 °F 12.0 °F 47% 30.14 in - ENE 4.6 mph - N/A   Unknown